Regional Weather Roundup
Issued by NWS Jackson, KY

Home | Current Version | Previous Version | Graphics & Text | Print | Product List | Glossary On
Versions: 1 2 3 4 5 6 7 8 9 10 11 12 13 14 15 16 17 18 19 20 21 22 23 24 25 26 27 28 29 30 31 32 33 34 35 36 37 38 39 40 41 42 43 44 45 46 47 48 49 50
000
ASUS43 KJKL 301210
RWRJKL

EAST KENTUCKY HOURLY WEATHER ROUNDUP
NATIONAL WEATHER SERVICE JACKSON KY
700 AM EST FRI JAN 30 2015

NOTE: "FAIR" INDICATES FEW OR NO CLOUDS BELOW 12,000 FEET WITH
NO SIGNIFICANT WEATHER AND/OR OBSTRUCTIONS TO VISIBILITY.

* THESE REPORTS ARE NOT UNDER NWS QUALITY CONTROL AND MAY NOT
  REPORT WEATHER SUCH AS PRECIPITATION AND FOG.

KYZ079-080-083-085-087-088-110-112-115-119-120-301300
...EASTERN KENTUCKY...

CITY           SKY/WX    TMP DP  RH WIND       PRES   REMARKS
JACKSON        CLOUDY    31  26  82 W8        30.26R WCI  23
6HR MIN TEMP:  31; 6HR MAX TEMP:  32; 6HR PCP:  0.02;

LONDON         LGT RAIN  33  26  75 NW9       30.31R WCI  25
6HR MIN TEMP:  33; 6HR MAX TEMP:  35; 6HR PCP: TRACE;

SOMERSET*      CLOUDY    32  27  80 NW6       30.35R WCI  26
MONTICELLO*    FLURRIES  33  30  89 NW12      30.37R WCI  24
6HR MIN TEMP:  33; 6HR MAX TEMP:  36; 6HR PCP: TRACE;

MIDDLESBORO*   CLOUDY    33  27  76 N9        30.30R WCI  26
6HR MIN TEMP:  33; 6HR MAX TEMP:  36;

HARLAN APT*    CLOUDY    32  27  80 NW6       30.26R WCI  26
HAZARD APT*    LGT RAIN  32  28  86 W12G18    30.27R WCI  23
BLACK MTN*       N/A     19  19 100 VRB3        N/A
PIKEVILLE APT* LGT SNOW  30  27  86 W6        30.23R WCI  24
BIG SANDY*     FLURRIES  32  28  86 W8        30.24R WCI  25
6HR MIN TEMP:  32; 6HR MAX TEMP:  33;

MOREHEAD APT*  CLOUDY    32  28  86 W7        30.29R WCI  26
$$

KYZ035-036-041-042-044-050-067-078-099-301300
...CENTRAL KENTUCKY...

CITY           SKY/WX    TMP DP  RH WIND       PRES   REMARKS
MT STERLING*   CLOUDY    32  27  80 NW8       30.31R WCI  25
FLEMING/MASON* CLOUDY    32  26  78 W13G20    30.29R WCI  22
DANVILLE*      CLOUDY    32  28  86 NW7       30.34R WCI  26
RICHMOND*      CLOUDY    32  28  86 W7        30.31R WCI  26
LEXINGTON      CLOUDY    32  26  78 NW9       30.32R WCI  24
6HR MIN TEMP:  32; 6HR MAX TEMP:  33; 6HR PCP: TRACE;

FRANKFORT      CLOUDY    33  21  61 NW7       30.32R WCI  27
6HR MIN TEMP:  33; 6HR MAX TEMP:  34; 6HR PCP: TRACE;

$$

KYZ091>093-OHZ055-061-077-WVZ005-015-034-035-042-301300
...SOUTHERN OHIO/WEST VIRGINIA...

CITY           SKY/WX    TMP DP  RH WIND       PRES   REMARKS
COVINGTON      FLURRIES  31  25  78 N22G31    30.31R WCI  18
COLUMBUS       LGT SNOW  23  16  74 N20G32    30.26R WCI   8
DAYTON         MOCLDY    24  15  68 N21G28    30.33R WCI   9
WILMINGTON     CLOUDY    26  17  68 N18G28    30.29R WCI  13
HUNTINGTON     CLOUDY    32  27  81 W8        30.23R WCI  25
CHARLESTON     LGT SNOW  31  27  85 W7        30.19R FOG     WCI  24
PINEVILLE*     LGT SNOW  32  31  96 MISG      30.20R
BECKLEY        LGT SNOW  26  23  88 N10       30.08S FOG     WCI  16
BLUEFIELD      FLURRIES  28  22  78 NW13G21   30.07R WCI  17
$$

VAZ002-007-008-TNZ017-027-036-066-071-301300
...SOUTHWEST VIRGINIA/EAST TENNESSEE...

CITY           SKY/WX    TMP DP  RH WIND       PRES   REMARKS
WISE*          FLURRIES  28  23  80 W9        30.18R WCI  20
JONESVILLE*    CLOUDY    32  23  69 NW5       30.28R WCI  27
ABINGDON*      CLOUDY    32  24  72 NW14G20   30.17R WCI  22
BRISTOL        CLOUDY    34  25  69 W10       30.22R WCI  26
KNOXVILLE      CLOUDY    36  25  64 N5        30.31R WCI  32
OAK RIDGE      CLOUDY    38  23  55 N9        30.33R WCI  31
CROSSVILLE     CLOUDY    32  26  78 NW9       30.30R WCI  24
NASHVILLE      CLOUDY    35  24  64 N12G20    30.42R WCI  27
$$

...KEY TO REMARKS...
VSB - VISIBILITY IN MILES
WCI - WIND CHILL INDEX
HX  - HEAT INDEX

$$



USA.gov is the U.S. government's official web portal to all federal, state and local government web resources and services.